Regional Weather Roundup
Issued by NWS

Home | Current Version | Previous Version | Graphics & Text | Print | Product List | Glossary On
Versions: 1 2 3 4 5 6 7 8 9 10 11 12 13 14 15 16 17 18 19 20 21 22 23 24 25 26 27 28 29 30 31 32 33 34 35 36 37 38 39 40 41 42 43 44 45 46 47 48 49 50
000
ASUS43 KMKX 270521
RWRWI

WISCONSIN REGIONAL WEATHER ROUNDUP
NATIONAL WEATHER SERVICE MILWAUKEE/SULLIVAN WI
1200 AM CDT WED AUG 27 2014

NOTE: "FAIR" INDICATES FEW OR NO CLOUDS BELOW 12,000 FEET WITH NO
SIGNIFICANT WEATHER AND/OR OBSTRUCTIONS TO VISIBILITY.

WIZ001-002-006>008-014>016-023>028-270600-
NORTHWEST WISCONSIN

CITY           SKY/WX    TMP DP  RH WIND       PRES   REMARKS
SUPERIOR ARPT  CLOUDY    57  52  82 CALM      30.19R
ASHLAND        CLOUDY    57  53  86 W5        30.17S
HAYWARD        LGT RAIN  58  55  90 CALM      30.17S
SIREN          LGT RAIN  58  55  90 CALM      30.20R
RICE LAKE      CLOUDY    60  56  87 CALM      30.20R
LADYSMITH      CLOUDY    61  56  84 CALM      30.19R
EAU CLAIRE     MOCLDY    62  57  83 N3        30.16R
MENOMONIE      LGT RAIN  64  58  81 NW5       30.18R
NEW RICHMOND   LGT RAIN  61  56  84 CALM      30.19R
OSCEOLA        LGT RAIN  61  60  95 W3        30.21R
$$

WIZ003>005-009-010-017-018-270600-
NORTH CENTRAL WISCONSIN

CITY           SKY/WX    TMP DP  RH WIND       PRES   REMARKS
WOODRUFF       MOCLDY    55  52  91 CALM      30.17R
RHINELANDER    MOCLDY    54  52  93 CALM      30.18R
EAGLE RIVER    MOCLDY    50  50 100 CALM      30.16R FOG
LAND O LAKES   PTCLDY    48  47  99 CALM      30.17R
PHILLIPS       CLOUDY    55  54  97 CALM      30.17R
TOMAHAWK       MOCLDY    51  50  95 CALM      30.18R
MEDFORD        MOCLDY    54  54  99 CALM      30.17R
MERRILL        MOCLDY    57  55  92 CALM      30.17R
$$

WIZ029-030-035-036-043>047-270600-
CENTRAL WISCONSIN

CITY           SKY/WX    TMP DP  RH WIND       PRES   REMARKS
WAUSAU         MOCLDY    59  55  87 W5        30.15R
MOSINEE        MOCLDY    59  55  88 NW7       30.16R
MARSHFIELD     MOCLDY    59  55  87 NW6       30.16R
STEVENS POINT  MOCLDY    60  54  78 CALM      30.16R
WAUPACA        MOCLDY    62  60  92 CALM      30.15R
WAUTOMA        CLOUDY    62  58  87 CALM      30.15S
WISC RAPIDS    CLOUDY    61  56  83 CALM      30.17R
CAMP DOUGLAS   CLOUDY    60  60 100 W3        30.15S
$$

WIZ011>013-019>022-031-037>040-048>050-270600-
NORTHEAST WISCONSIN

CITY           SKY/WX    TMP DP  RH WIND       PRES   REMARKS
ANTIGO         CLOUDY    56  54  91 N3        30.16S
STURGEON BAY   CLEAR     63  61  94 N10       30.12S
GREEN BAY      PTCLDY    59  58  96 W5        30.13R
MANITOWOC      CLEAR     61  57  87 CALM      30.13R
APPLETON       CLOUDY    59  55  88 W8        30.14S
CLINTONVILLE   MOCLDY    61  55  82 CALM      30.13S
OSHKOSH        MOCLDY    64  57  78 W5        30.13S
$$

WIZ032>034-041-042-053>061-270600-
SOUTHWEST WISCONSIN

CITY           SKY/WX    TMP DP  RH WIND       PRES   REMARKS
LA CROSSE      CLOUDY    65  60  84 N3        30.15R
SPARTA         CLOUDY    60  58  93 CALM      30.17R
VIROQUA        MOCLDY    63  58  86 CALM      30.17R
BOSCOBEL       CLOUDY    65  61  87 CALM      30.15R
PRAIRIE DU CHI CLOUDY    66  62  87 CALM      30.14S
PLATTEVILLE    FAIR      65  62  89 N5        30.16R
$$

WIZ056-057-062-063-064-067-068-270600-
SOUTH CENTRAL WISCONSIN

CITY           SKY/WX    TMP DP  RH WIND       PRES   REMARKS
BARABOO/DELLS  CLOUDY    64  56  73 CALM      30.15R
LONE ROCK      CLOUDY    69  61  75 SW3       30.15R
WATERTOWN      PTCLDY    63  59  87 N3        30.13S
MADISON        MOCLDY    63  58  83 NW3       30.14R
MIDDLETON      FAIR      64  63  96 CALM      30.15R
MONROE         MOCLDY    64  61  88 N7        30.13S
JANESVILLE     PTCLDY    66  63  88 CALM      30.13S
$$

WIZ051-052-058>065-066-070>072-270600-
SOUTHEAST WISCONSIN

CITY           SKY/WX    TMP DP  RH WIND       PRES   REMARKS
MILWAUKEE      PTCLDY    67  60  78 NW6       30.12S
WAUKESHA       CLEAR     61  55  82 N5        30.14S
MILWAUKEE/TIMM CLEAR     63  55  77 NW7       30.14R
RACINE         CLEAR     64  61  90 CALM      30.14R
BURLINGTON     CLEAR     59  59 100 CALM      30.12F
KENOSHA        CLEAR     65  62  90 N3        30.13S
FOND DU LAC    MOCLDY    63  56  78 W5        30.14R
SHEBOYGAN      PTCLDY    59  57  93 CALM      30.13R
WEST BEND      MOCLDY    61  54  77 NW5       30.14S
JUNEAU         MOCLDY    62  57  85 N3        30.15S
$$

LSZ147-162-270600-
LAKE SUPERIOR

STATION/POSITION TIME  TEMP    WIND        PRES    WAVE
                       AIR SEA DIR/SP/G            HT/PER
                 (UTC) (F)     (DEG/KT/KT) (MB)    (FT/S)
W MID LAKE BUOY  0450   58 55  280/  6/  6 1020.6R   1/ 4
DEVILS ISLAND    0500   61      40/  3/  3 1021.4R
PORT WING        0400   62     320/  8/ 10 1021.0
SAXON HARBOR     0440   57      CALM  /  3 1021.0R
$$

LMZ867-665-643>646-270600-
LAKE MICHIGAN

STATION/POSITION TIME  TEMP    WIND        PRES    WAVE
                       AIR SEA DIR/SP/G            HT/PER
                 (UTC) (F)     (DEG/KT/KT) (MB)    (FT/S)
N MID LAKE BUOY  0450   62 66   10/ 14/ 16 1019.9R   2/ 3
NORTHPORT PIER   0400   62      20/  9/ 13 1020.3R
SISTER BAY       0441   61      10/  7/ 10   N/A
KEWAUNEE LAKESHO 0500   61     300/  1/  2 1018.8S
SHEBOYGAN LAKESH 0500   65 66  290/  6/  7 1020.2R
ATWATER BUOY     0500   68     330/  8/ 10 1020.7F
MILWAUKEE LAKESH 0500   69     330/  8/ 10   N/A
S MID LAKE BUOY  0450   68 69  360/  4/  6 1019.7R   0
KENOSHA   LAKESH 0500   68        CALM     1019.6R
$$

TC  - TEMPERATURE IN CELSIUS
VSB - VISIBILITY IN STATUTE MILES
WCI - WIND CHILL INDEX
HX  - HEAT INDEX




USA.gov is the U.S. government's official web portal to all federal, state and local government web resources and services.